Voltar ao catálogo

STARLINK-35964

AtivoComunicaçõesVLEO
NORAD 66796·PAYLOAD·🇺🇸 United States

Lançado Dec 1, 2025 de Cape Canaveral Space Force Station

Loading…

Próximas Passagens (próximas 24 horas)

TLE

AtualizadoSource: CelesTrak SupGP

Época: Sep 14, 2026, 22:28 UTC

1 66796C 25278F   26257.93659722  .00001096  00000+0  39698-4 0  2574
2 66796  42.9995 110.7061 0001350 272.1233 325.7500 15.27570208    19

Acompanhe STARLINK-35964 em tempo real com AllMySat

Download on the App Store